Regional Weather Roundup
Issued by NWS Cleveland, OH

Home | Current Version | Previous Version | Graphics & Text | Print | Product List | Glossary On
Versions: 1 2 3 4 5 6 7 8 9 10 11 12 13 14 15 16 17 18 19 20 21 22 23 24 25 26 27 28 29 30 31 32 33 34 35 36 37 38 39 40 41 42 43 44 45 46 47 48 49 50
000
ASUS41 KCLE 240900
RWRCLE
OHIO REGIONAL WEATHER ROUNDUP
NATIONAL WEATHER SERVICE WILMINGTON, OH
500 AM EDT THU APR 24 2014

NOTE: "FAIR" INDICATES FEW OR NO CLOUDS BELOW 12,000 FEET WITH NO
SIGNIFICANT WEATHER AND/OR OBSTRUCTIONS TO VISIBILITY.

OHZ001>008-015>018-024>027-034-035-043-044-241000-
   NORTHWEST OHIO

CITY           SKY/WX    TMP DP  RH WIND       PRES   REMARKS
DEFIANCE       CLOUDY    46  31  55 SE3       30.11R
FINDLAY        CLOUDY    44  31  60 SE7       30.10R
TOLEDO EXPRESS CLOUDY    43  30  60 E6        30.12R
TOLEDO METCALF CLOUDY    43  30  60 E7        30.14R
LIMA           CLOUDY    46  30  53 SE7       30.09R
$$

OHZ009>014-019>023-028>033-038-089-241000-
   NORTHEAST OHIO

CITY           SKY/WX    TMP DP  RH WIND       PRES   REMARKS
CLE-HOPKINS    MOCLDY    37  26  64 CALM      30.17R
CLE-LAKEFRONT  PTCLDY    39  21  48 E3        30.14R
CUY CO. ARPT   NOT AVBL
LORAIN-ELYRIA  MOCLDY    38  33  82 CALM      30.15R
ASHTABULA      PTCLDY    27  22  81 W3        30.13R
AKRON-CANTON   PTCLDY    33  22  64 CALM      30.13R
WOOSTER        NOT AVBL
MANSFIELD      CLOUDY    39  23  52 E3        30.12R
YOUNGSTOWN     PTCLDY    28  18  66 CALM      30.11R
$$

OHZ042-051>053-060>062-070>072-077>081-241000-
  SOUTHWEST OHIO

CITY           SKY/WX    TMP DP  RH WIND       PRES   REMARKS
CINC-COVINGTON CLOUDY    49  34  56 E9        30.06R
CINC-LUNKEN    MOCLDY    47  35  63 NE3       30.08S
HAMILTON       MOCLDY    49  33  54 E9        30.07F
DAYTON         NOT AVBL
WRIGHT-PAT AFB CLOUDY    45  29  52 E7        30.09R
DAYTON GENERAL MOCLDY    46  29  51 E9        30.06F
WILMINGTON     CLOUDY    44  30  57 E6        30.09R
$$

OHZ036-037-039>041-045>050-054>059-063>069-073>076-082>088-241000-
  CENTRAL AND SOUTHEAST OHIO

CITY           SKY/WX    TMP DP  RH WIND       PRES   REMARKS
COLUMBUS       CLOUDY    45  28  51 E5        30.11R
OSU AIRPORT    CLOUDY    43  30  60 E8        30.10F
BOLTON FIELD   NOT AVBL
RICKENBACK AFB NOT AVBL
NEWARK         CLOUDY    40  30  67 CALM      30.11S
MARION         CLOUDY    41  29  62 SE7       30.11S
LANCASTER      CLOUDY    42  31  64 E6        30.11S
ZANESVILLE     MOCLDY    35  30  82 CALM      30.12R
NEW PHILLY     PTCLDY    32  28  85 CALM      30.14R
$$



USA.gov is the U.S. government's official web portal to all federal, state and local government web resources and services.